"Pseudo-MPEC" for CEJ7UN2

Created 2026 Apr 16 23:35:06 UT using Find_Orb

Click here for an explanation of pseudo-MPECs

 
 Astrometry: 
     CEJ7UN2*1C2026 04 16.14322508 25 47.914+07 09 51.34   ~4G45 20.81GVNEOCPG96
     CEJ7UN2 1C2026 04 16.14958308 25 54.286+07 09 55.01   ~4G45 20.48GVNEOCPG96
     CEJ7UN2 1C2026 04 16.15471108 25 59.376+07 09 58.36   ~4G45 20.34GVNEOCPG96
     CEJ7UN2 1C2026 04 16.15985008 26 04.456+07 10 01.52   ~4G45 20.70GVNEOCPG96
     CEJ7UN2  C2026 04 16.18652808 26 30.798+07 10 16.11   ~4G55 20.5 GWNEOCPH01
     CEJ7UN2  C2026 04 16.19211808 26 36.350+07 10 19.49   ~4G55 20.5 GWNEOCPH01
     CEJ7UN2  C2026 04 16.20010808 26 44.294+07 10 24.20   ~4G55 20.3 GWNEOCPH01
     CEJ7UN2  C2026 04 16.20705508 26 51.211+07 10 28.38   ~4G55 20.2 GWNEOCPH01
     CEJ7UN2 1C2026 04 16.25182708 27 35.878+07 10 56.78   ~4G6Z 20.51GVNEOCPI52
     CEJ7UN2 1C2026 04 16.25353108 27 37.523+07 10 58.37   ~4G6Z 20.91GVNEOCPI52
     CEJ7UN2 1C2026 04 16.25523208 27 39.298+07 10 58.84   ~4G6Z 21.04GVNEOCPI52
     CEJ7UN2 1C2026 04 16.25693708 27 40.943+07 10 59.66   ~4G6Z 20.51GVNEOCPI52
     CEJ7UN2 1C2026 04 16.84564008 37 26.965+07 16 16.10   ~4GKZ 20.4 GXNEOCP033
     CEJ7UN2 1C2026 04 16.84676008 37 28.027+07 16 16.60   ~4GKZ 20.2 GXNEOCP033
     CEJ7UN2 1C2026 04 16.84788008 37 29.086+07 16 17.19   ~4GKZ 20.3 GXNEOCP033
     CEJ7UN2 0C2026 04 16.87670908 37 57.037+07 16 43.95   ~4GLo 20.0 GXNEOCPR59
     CEJ7UN2 0C2026 04 16.88649208 38 06.358+07 16 48.64   ~4GLo 20.0 GXNEOCPR59
     CEJ7UN2 0C2026 04 16.89609108 38 15.466+07 16 53.60   ~4GLo 19.9 GXNEOCPR59

Station data:
(033) Karl Schwarzschild Observatory, Tautenburg  (N50.980139 E11.711240)
   Germany.  Observer B. Stecklum. 1.34-m f/3 Schmidt + CCD.
(G96) Mt. Lemmon Survey  (N32.442729 W110.788720)  US/Arizona.  Observer E.
   J. Christensen. Measurers T. Beuden, V. F. Carvajal, D. Fay, J. B.
   Fazekas, D. C. Fuls, A. R. Gibbs, A. D. Grauer, H. Gröller, J. K. Hogan,
   R. A. Kowalski, S. M. Larson, G. J. Leonard, D. Rankin, R. L. Seaman, F.
   C. Shelly, K. W. Wierzchoś. 1.5-m reflector + 10K CCD.
(H01) Magdalena Ridge Observatory, Socorro  (N33.984833 W107.189333)  US/New
   Mexico.  Observers W. H. Ryan, E. V. Ryan. Measurer W. H. Ryan. 2.4-m
   f/8.9 reflector + CCD.
(I52) Steward Observatory, Mt. Lemmon Station  (N32.442570 W110.788920)
   US/Arizona. Measurers T. Beuden, V. F. Carvajal, D. Fay, J. B. Fazekas, D.
   C. Fuls, A. R. Gibbs, A. D. Grauer, H. Gröller, J. K. Hogan, R. A.
   Kowalski, S. M. Larson, G. J. Leonard, D. Rankin, R. L. Seaman, F. C.
   Shelly, K. W. Wierzchoś. 1.0-m prime focus + CCD.
(R59) Camarasa Observatory, Astrocamp Nerpio  (N38.165429 W2.326580)  Spain.

Orbital elements:  CEJ7UN2
   Perihelion 2026 Feb 10.817215 +/- 0.7 TT = 19:36:47.4 (JD 2461082.317215)
Epoch 2026 Apr 17.0 TT = JDT 2461147.5   Earth MOID: 0.0324   Ve: 0.0057
M  51.055822344 +/- 1.8             (J2000 ecliptic)             AutoNEOCP
n   0.783271573 +/- 0.0196          Peri.  244.851769 +/- 1.2
a   1.165541672 +/- 0.0194          Node   210.126450 +/- 0.17
e   0.45870887 +/- 0.00702          Incl.    7.350622 +/- 0.16
P   1.258/459.602d         H 22.60  G  0.15   U 10.1
q 0.630897365 +/- 0.00422    Q 1.700185979 +/- 0.0361
From 18 observations 2026 Apr. 16 (18.1 hr); mean residual 0".30
Residuals in arcseconds: 
260416 G96  .72-  .11-    260416 H01  .14+  .05-    260416 033  .10+  .08-    
260416 G96  .21+  .39-    260416 H01  .22+  .01-    260416 033  .09-  .13-    
260416 G96  .23+  .22-    260416 I52  .09+  .13+    260416 033  .33-  .09-    
260416 G96  .07-  .23-    260416 I52  .69-  .74+    260416 R59  .41+  .04-    
260416 H01  .25+  .01+    260416 I52  .50+  .22+    260416 R59  .30+  .09-    
260416 H01  .17+  .03+    260416 I52  .31-  .06+    260416 R59  .39-  .27+    

Ephemerides (geocentric):
Date (UTC) HH   RA             Dec           delta  r     elong  mag " sig PA
---- --------  ------------   ------------  ------ ------ -----  --- --------
2026 04 17 00  08 39 58.246   +07 18 20.54  .12995 1.0419 103.6 20.7 .794 162
2026 04 17 01  08 40 38.435   +07 18 40.54  .13013 1.0422 103.7 20.7 .911 146
2026 04 17 02  08 41 18.521   +07 19 00.25  .13031 1.0425 103.8 20.7 1.10 134
2026 04 17 03  08 41 58.503   +07 19 19.66  .13049 1.0429 103.9 20.7 1.33 125
2026 04 17 04  08 42 38.380   +07 19 38.78  .13067 1.0432 104.0 20.7 1.61 118
2026 04 17 05  08 43 18.153   +07 19 57.61  .13085 1.0435 104.2 20.7 1.93 113
2026 04 17 06  08 43 57.822   +07 20 16.14  .13104 1.0439 104.3 20.7 2.26 110
2026 04 17 07  08 44 37.385   +07 20 34.39  .13122 1.0442 104.4 20.7 2.63 107
2026 04 17 08  08 45 16.844   +07 20 52.35  .13141 1.0445 104.5 20.7 3.02 105
2026 04 17 09  08 45 56.198   +07 21 10.03  .13160 1.0448 104.6 20.7 3.43 103
2026 04 17 10  08 46 35.446   +07 21 27.42  .13179 1.0452 104.8 20.7 3.86 101
2026 04 17 11  08 47 14.589   +07 21 44.52  .13197 1.0455 104.9 20.7 4.31 100
2026 04 17 12  08 47 53.627   +07 22 01.35  .13216 1.0458 105.0 20.7 4.78  99
2026 04 17 13  08 48 32.559   +07 22 17.89  .13236 1.0462 105.1 20.7 5.28  98
2026 04 17 14  08 49 11.385   +07 22 34.16  .13255 1.0465 105.2 20.7 5.79  97
2026 04 17 15  08 49 50.106   +07 22 50.15  .13274 1.0468 105.3 20.7 6.31  97
2026 04 17 16  08 50 28.720   +07 23 05.86  .13294 1.0472 105.4 20.7 6.86  96
2026 04 17 17  08 51 07.229   +07 23 21.30  .13313 1.0475 105.6 20.7 7.43  96
2026 04 17 18  08 51 45.632   +07 23 36.46  .13333 1.0478 105.7 20.7 8.01  95
2026 04 17 19  08 52 23.929   +07 23 51.36  .13352 1.0482 105.8 20.7 8.61  95
2026 04 17 20  08 53 02.119   +07 24 05.98  .13372 1.0485 105.9 20.7 9.23  95
2026 04 17 21  08 53 40.203   +07 24 20.34  .13392 1.0488 106.0 20.7 9.86  94
2026 04 17 22  08 54 18.181   +07 24 34.43  .13412 1.0491 106.1 20.7 10.5  94
2026 04 17 23  08 54 56.053   +07 24 48.25  .13432 1.0495 106.2 20.7 11.2  94
2026 04 18 00  08 55 33.818   +07 25 01.81  .13452 1.0498 106.3 20.7 11.9  93
2026 04 18 01  08 56 11.476   +07 25 15.11  .13473 1.0501 106.5 20.7 12.6  93
2026 04 18 02  08 56 49.029   +07 25 28.14  .13493 1.0505 106.6 20.7 13.3  93
2026 04 18 03  08 57 26.475   +07 25 40.92  .13514 1.0508 106.7 20.7 14.0  93
2026 04 18 04  08 58 03.814   +07 25 53.44  .13534 1.0511 106.8 20.7 14.8  93
2026 04 18 05  08 58 41.047   +07 26 05.70  .13555 1.0515 106.9 20.7 15.5  93
2026 04 18 06  08 59 18.173   +07 26 17.71  .13576 1.0518 107.0 20.7 16.3  92
2026 04 18 07  08 59 55.193   +07 26 29.47  .13597 1.0521 107.1 20.7 17.1  92
2026 04 18 08  09 00 32.106   +07 26 40.97  .13617 1.0524 107.2 20.7 17.9  92
2026 04 18 09  09 01 08.913   +07 26 52.22  .13638 1.0528 107.3 20.7 18.7  92
2026 04 18 10  09 01 45.613   +07 27 03.23  .13660 1.0531 107.4 20.7 19.6  92
2026 04 18 11  09 02 22.207   +07 27 13.98  .13681 1.0534 107.5 20.7 20.4  92
2026 04 18 12  09 02 58.694   +07 27 24.50  .13702 1.0538 107.6 20.7 21.3  92
2026 04 18 13  09 03 35.075   +07 27 34.76  .13724 1.0541 107.7 20.7 22.2  92
2026 04 18 14  09 04 11.350   +07 27 44.79  .13745 1.0544 107.9 20.7 23.1  92
2026 04 18 15  09 04 47.518   +07 27 54.57  .13767 1.0548 108.0 20.7 24.0  92
2026 04 18 16  09 05 23.580   +07 28 04.12  .13788 1.0551 108.1 20.7 24.9  92
2026 04 18 17  09 05 59.536   +07 28 13.42  .13810 1.0554 108.2 20.7 25.8  92
2026 04 18 18  09 06 35.386   +07 28 22.49  .13832 1.0557 108.3 20.7 26.8  91
2026 04 18 19  09 07 11.129   +07 28 31.33  .13854 1.0561 108.4 20.7 27.7  91
2026 04 18 20  09 07 46.767   +07 28 39.93  .13876 1.0564 108.5 20.7 28.7  91
2026 04 18 21  09 08 22.299   +07 28 48.30  .13898 1.0567 108.6 20.7 29.7  91
2026 04 18 22  09 08 57.725   +07 28 56.44  .13920 1.0571 108.7 20.7 30.7  91
2026 04 18 23  09 09 33.045   +07 29 04.35  .13943 1.0574 108.8 20.7 31.7  91